Location: Capvern
(43.1036°N, 0.3160°E)
Time: 22:35:18
(UTC+00:00)

Cosmos 1605 Rocket - Pass Details

Date: 16 October 2021
Orbit: 945 x 1006 km, 82.9° (Epoch: 04 December)

Event Time Altitude Azimuth Distance (km) Brightness Sun altitude
Rises 18:47:57 0° 167° (SSE) 3,636 6.8 -17.9°
Reaches altitude 10° 18:50:31 10° 161° (SSE) 2,702 6.1 -18.3°
Maximum altitude 18:56:23 47° 90° (E) 1,279 4.2 -19.4°
Drops below altitude 10° 19:02:23 10° 19° (NNE) 2,760 6.2 -20.5°
Sets 19:05:01 0° 14° (NNE) 3,721 7.0 -21.0°
